San Sebastian/Fu, Spain

10:45 PM CET on January 24, 2017 (GMT +0100)
San Sebastian

Weather History for LESO - February, 2014

Change the Weather History Date:

Monday, February 3, 2014

  Actual Average Record
Temperature  
Mean Temperature 46 °F -  
Max Temperature 56 °F 54 °F 71 °F (2004)
Min Temperature 35 °F 41 °F 26 °F (2012)
Degree Days  
Heating Degree Days 20    
Moisture  
Dew Point 35 °F    
Average Humidity 63    
Maximum Humidity 93    
Minimum Humidity 30    
Precipitation  
Precipitation 0.08 in - - ()
Sea Level Pressure  
Sea Level Pressure 29.71 in    
Wind  
Wind Speed 9 mph ()    
Max Wind Speed 23 mph    
Max Gust Speed 34 mph    
Visibility 7.8 miles    
Events Rain    
Averages and records for this station are not official NWS values.
T = Trace of Precipitation, MM = Missing Value Source: Averaged Metar Reports

Daily Weather History Graph

Daily Weather History Graph

Search for Another Location

Airport or City:

Trip Planner

Search our weather history database for the weather conditions in past years. The results will help you decide how hot, cold, wet, or windy it might be!

Date:

Astronomy

Feb. 03, 2014 Rise Set
Actual Time 8:21 AM CET 6:21 PM CET
Civil Twilight 7:50 AM CET 6:51 PM CET
Nautical Twilight 7:16 AM CET 7:25 PM CET
Astronomical Twilight 6:43 AM CET 7:59 PM CET
Moon 10:06 AM CET (2/3) 11:05 PM CET (2/3)
Length of Visible Light 11h 00m
Length of Day
10h 00m
Waxing Crescent, 17% of the Moon is Illuminated
Feb 3
Waxing Crescent
Feb 6
First Quarter
Feb 15
Full
Feb 22
Last Quarter
Mar 1
New

Hourly Weather History & Observations

Time (CET) Temp. Windchill Dew Point Humidity Pressure Visibility Wind Dir Wind Speed Gust Speed Precip Events Conditions
4:30 AM 46.4 °F 43.5 °F 32.0 °F 57% 29.74 in - ESE 5.8 mph - N/A   Clear
5:00 AM 41.0 °F - 33.8 °F 76% 29.74 in - Variable 2.3 mph - N/A   Clear
5:30 AM 37.4 °F 34.9 °F 33.8 °F 87% 29.74 in - South 3.5 mph - N/A   Clear
6:00 AM 39.2 °F 34.2 °F 33.8 °F 81% 29.68 in - SSE 6.9 mph - N/A   Clear
6:30 AM 48.2 °F - 32.0 °F 54% 29.68 in - SSE 8.1 mph - N/A   Clear
7:00 AM 49 °F - 27 °F 30% 29.69 in 19 mi South 9.2 mph - -   Mostly Cloudy
7:00 AM 46.4 °F 42.9 °F 30.2 °F 53% 29.68 in - South 6.9 mph - N/A   Clear
7:30 AM 48.2 °F - 32.0 °F 54% 29.68 in - SSE 15.0 mph - N/A   Clear
8:00 AM 46.4 °F 40.1 °F 30.2 °F 53% 29.68 in - SSE 15.0 mph - N/A   Clear
8:30 AM 46.4 °F 43.5 °F 30.2 °F 53% 29.68 in - SE 5.8 mph - N/A   Clear
9:00 AM 42.8 °F 41.1 °F 32.0 °F 66% 29.68 in - South 3.5 mph - N/A   Clear
9:30 AM 48.2 °F - 30.2 °F 50% 29.71 in 6.2 mi South 12.7 mph - N/A   Mostly Cloudy
10:00 AM 45 °F - 33 °F 53% 29.72 in 9 mi South 19.6 mph - - Rain Light Rain
10:00 AM 44.6 °F 36.9 °F 35.6 °F 71% 29.71 in 6.2 mi South 18.4 mph 34.5 mph N/A Rain Light Rain
10:30 AM 44.6 °F 39.7 °F 33.8 °F 66% 29.68 in 6.2 mi SSE 9.2 mph - N/A   Mostly Cloudy
11:00 AM 44.6 °F 37.4 °F 35.6 °F 71% 29.65 in 6.2 mi SSE 16.1 mph 27.6 mph N/A   Mostly Cloudy
11:30 AM 46.4 °F 39.5 °F 35.6 °F 66% 29.65 in - South 17.3 mph - N/A   Clear
12:00 PM 46.4 °F 40.1 °F 35.6 °F 66% 29.65 in - South 15.0 mph - N/A   Clear
12:30 PM 50.0 °F - 33.8 °F 54% 29.65 in - SSE 23.0 mph - N/A   Clear
1:00 PM 52 °F - 31 °F 32% 29.65 in 19 mi South 10.4 mph - -   Partly Cloudy
1:00 PM 50.0 °F - 33.8 °F 54% 29.62 in - South 6.9 mph - N/A   Clear
1:30 PM 51.8 °F - 32.0 °F 47% 29.65 in - SSW 15.0 mph - N/A   Clear
2:00 PM 51.8 °F - 33.8 °F 50% 29.65 in - SSW 18.4 mph 32.2 mph N/A   Clear
2:30 PM 51.8 °F - 33.8 °F 50% 29.65 in - SSW 17.3 mph - N/A   Clear
3:00 PM 51.8 °F - 33.8 °F 50% 29.68 in 6.2 mi SSW 15.0 mph - N/A   Mostly Cloudy
3:30 PM 50.0 °F - 35.6 °F 58% 29.68 in 6.2 mi South 9.2 mph - N/A Rain Light Rain
4:00 PM 51 °F - 33 °F 38% 29.70 in 19 mi South 15.0 mph - - Rain Light Rain
4:00 PM 50.0 °F - 33.8 °F 54% 29.68 in 6.2 mi South 13.8 mph - N/A   Scattered Clouds
4:30 PM 50.0 °F - 35.6 °F 58% 29.68 in - South 15.0 mph - N/A   Clear
5:00 PM 50.0 °F - 35.6 °F 58% 29.71 in 6.2 mi SW 11.5 mph - N/A   Mostly Cloudy
5:30 PM 48.2 °F - 35.6 °F 62% 29.74 in 6.2 mi SSW 9.2 mph - N/A   Mostly Cloudy
6:00 PM 48.2 °F - 39.2 °F 71% 29.77 in 6.2 mi West 6.9 mph - N/A Rain Light Rain
6:30 PM 46.4 °F 43.5 °F 41.0 °F 81% 29.80 in 6.2 mi Variable 5.8 mph 21.9 mph N/A Rain Light Rain
7:00 PM 47 °F - 41 °F 74% 29.82 in 4 mi WSW 8.1 mph - - Rain Rain
7:00 PM 46.4 °F 42.9 °F 41.0 °F 81% 29.80 in 4.3 mi Variable 6.9 mph 19.6 mph N/A Rain Rain
7:30 PM 44.6 °F 39.7 °F 39.2 °F 81% 29.83 in 5.6 mi Variable 9.2 mph 23.0 mph N/A Rain Rain
8:00 PM 44.6 °F 40.2 °F 39.2 °F 81% 29.83 in 5.6 mi WSW 8.1 mph - N/A Rain Light Rain
8:30 PM 42.8 °F 37.0 °F 41.0 °F 93% 29.83 in 6.2 mi South 10.4 mph - N/A   Mostly Cloudy
9:00 PM 42.8 °F 36.6 °F 39.2 °F 87% 29.83 in 6.2 mi SSW 11.5 mph - N/A Rain Light Rain
9:30 PM 42.8 °F 40.1 °F 39.2 °F 87% 29.86 in 6.2 mi SSW 4.6 mph - N/A   Mostly Cloudy